• In Russia
  • List of Countries
  • For 7 days
  • Water Temperature
  • Satellite Maps
  • Weather Map
  • Weather Widgets
  • user-avatar
    Login

    Hourly Weather Ali Bayramli

    Today, 27 March, Monday

    Time Temperature Precipitation Wind Pressure Humidity
    00:00 +8°C° 0 mm 2 mps 758 mmHg 87%
    01:00 +8°C° 0 mm 2 mps 758 mmHg 85%
    02:00 +8°C° 0 mm 2 mps 757 mmHg 84%
    03:00 +8°C° 0 mm 2 mps 757 mmHg 86%
    04:00 +8°C° 0 mm 2 mps 757 mmHg 85%
    05:00 +8°C° 0 mm 2 mps 757 mmHg 83%
    06:00 +8°C° 0 mm 3 mps 757 mmHg 81%
    07:00 +11°C° 0 mm 4 mps 757 mmHg 70%
    08:00 +13°C° 0 mm 5 mps 757 mmHg 59%
    09:00 +16°C° 0 mm 6 mps 757 mmHg 48%
    10:00 +19°C° 0 mm 6 mps 756 mmHg 43%
    11:00 +20°C° 0 mm 6 mps 756 mmHg 37%
    12:00 +22°C° 0 mm 6 mps 756 mmHg 32%
    13:00 +22°C° 0 mm 6 mps 755 mmHg 32%
    14:00 +23°C° 0 mm 5 mps 754 mmHg 31%
    15:00 +23°C° 0 mm 5 mps 754 mmHg 31%
    16:00 +21°C° 0 mm 4 mps 754 mmHg 36%
    17:00 +19°C° 0 mm 4 mps 754 mmHg 42%
    18:00 +17°C° 0 mm 3 mps 754 mmHg 47%
    19:00 +16°C° 0 mm 2 mps 755 mmHg 49%
    20:00 +15°C° 0 mm 2 mps 755 mmHg 50%
    21:00 +14°C° 0 mm 2 mps 755 mmHg 51%
    22:00 +14°C° 0 mm 2 mps 755 mmHg 53%
    23:00 +13°C° 0 mm 2 mps 755 mmHg 54%

    Tomorrow, 28 March, Tuesday

    Time Temperature Precipitation Wind Pressure Humidity
    00:00 +13°C° 0 mm 2 mps 755 mmHg 55%
    01:00 +12°C° 0 mm 2 mps 755 mmHg 57%
    02:00 +12°C° 0 mm 2 mps 755 mmHg 60%
    03:00 +10°C° 0 mm 2 mps 755 mmHg 62%
    04:00 +10°C° 0 mm 3 mps 756 mmHg 65%
    05:00 +9°C° 0 mm 3 mps 756 mmHg 67%
    06:00 +8°C° 0 mm 4 mps 757 mmHg 70%
    07:00 +9°C° 0 mm 5 mps 758 mmHg 66%
    08:00 +10°C° 0 mm 6 mps 759 mmHg 62%
    09:00 +12°C° 0 mm 7 mps 760 mmHg 58%
    10:00 +13°C° 0 mm 6 mps 760 mmHg 55%
    11:00 +14°C° 0 mm 6 mps 760 mmHg 52%
    12:00 +15°C° 0 mm 6 mps 761 mmHg 49%
    13:00 +14°C° 0 mm 5 mps 761 mmHg 50%
    14:00 +14°C° 0 mm 5 mps 761 mmHg 50%
    15:00 +14°C° 0 mm 5 mps 761 mmHg 50%
    16:00 +13°C° 0 mm 4 mps 761 mmHg 53%
    17:00 +12°C° 0 mm 4 mps 761 mmHg 56%
    18:00 +11°C° 0 mm 4 mps 761 mmHg 59%
    19:00 +10°C° 0 mm 4 mps 761 mmHg 63%
    20:00 +9°C° 0 mm 3 mps 761 mmHg 67%
    21:00 +8°C° 0 mm 3 mps 762 mmHg 71%
    22:00 +8°C° 0 mm 3 mps 761 mmHg 74%
    23:00 +7°C° 0 mm 3 mps 761 mmHg 77%

    Day after tomorrow, 29 March, Wednesday

    Time Temperature Precipitation Wind Pressure Humidity
    00:00 +7°C° 0 mm 3 mps 760 mmHg 79%
    01:00 +7°C° 0 mm 3 mps 760 mmHg 79%
    02:00 +6°C° 0 mm 4 mps 759 mmHg 79%
    03:00 +6°C° 0 mm 4 mps 759 mmHg 78%
    04:00 +6°C° 0 mm 5 mps 759 mmHg 72%
    05:00 +6°C° 0 mm 5 mps 759 mmHg 65%
    06:00 +5°C° 0 mm 6 mps 759 mmHg 58%
    07:00 +8°C° 0 mm 6 mps 759 mmHg 49%
    08:00 +10°C° 0 mm 7 mps 760 mmHg 39%
    09:00 +13°C° 0 mm 8 mps 760 mmHg 29%
    10:00 +15°C° 0 mm 7 mps 760 mmHg 28%
    11:00 +17°C° 0 mm 6 mps 760 mmHg 26%
    12:00 +20°C° 0 mm 6 mps 760 mmHg 25%
    13:00 +20°C° 0 mm 6 mps 760 mmHg 26%
    14:00 +20°C° 0 mm 5 mps 761 mmHg 27%
    15:00 +20°C° 0 mm 5 mps 761 mmHg 29%
    16:00 +16°C° 0 mm 5 mps 761 mmHg 38%
    17:00 +14°C° 0 mm 6 mps 762 mmHg 48%
    18:00 +11°C° 0 mm 6 mps 763 mmHg 57%
    19:00 +10°C° 0 mm 5 mps 764 mmHg 61%
    20:00 +9°C° 0 mm 5 mps 765 mmHg 66%
    21:00 +8°C° 0 mm 4 mps 766 mmHg 70%
    22:00 +8°C° 0 mm 4 mps 766 mmHg 73%
    23:00 +8°C° 0 mm 4 mps 766 mmHg 76%

    30 March, Thursday

    Time Temperature Precipitation Wind Pressure Humidity
    00:00 +8°C° 0 mm 3 mps 767 mmHg 79%
    01:00 +8°C° 0 mm 3 mps 767 mmHg 80%
    02:00 +7°C° 0 mm 3 mps 767 mmHg 81%
    03:00 +7°C° 0 mm 2 mps 767 mmHg 82%
    04:00 +7°C° 0 mm 2 mps 767 mmHg 82%
    05:00 +7°C° 0 mm 2 mps 768 mmHg 82%
    06:00 +7°C° 0 mm 2 mps 768 mmHg 82%
    07:00 +9°C° 0 mm 3 mps 768 mmHg 74%
    08:00 +10°C° 0 mm 4 mps 768 mmHg 67%
    09:00 +12°C° 0 mm 4 mps 768 mmHg 59%
    10:00 +12°C° 0 mm 5 mps 767 mmHg 59%
    11:00 +13°C° 0 mm 5 mps 766 mmHg 58%
    12:00 +13°C° 0 mm 5 mps 766 mmHg 58%
    13:00 +13°C° 0 mm 4 mps 765 mmHg 58%
    14:00 +14°C° 0 mm 4 mps 764 mmHg 57%
    15:00 +14°C° 0 mm 4 mps 763 mmHg 56%
    16:00 +13°C° 0 mm 4 mps 763 mmHg 60%
    17:00 +12°C° 0 mm 4 mps 762 mmHg 63%
    18:00 +11°C° 0 mm 3 mps 762 mmHg 67%
    19:00 +11°C° 0 mm 3 mps 762 mmHg 71%
    20:00 +10°C° 0 mm 3 mps 762 mmHg 74%
    21:00 +9°C° 0 mm 3 mps 762 mmHg 78%
    22:00 +9°C° 0 mm 3 mps 761 mmHg 80%
    23:00 +8°C° 0 mm 3 mps 761 mmHg 82%

    31 March, Friday

    Time Temperature Precipitation Wind Pressure Humidity
    00:00 +8°C° 0 mm 3 mps 760 mmHg 85%
    01:00 +8°C° 0 mm 3 mps 760 mmHg 85%
    02:00 +8°C° 0 mm 3 mps 760 mmHg 85%
    03:00 +8°C° 0 mm 3 mps 760 mmHg 85%
    04:00 +7°C° 0 mm 3 mps 760 mmHg 84%
    05:00 +7°C° 0 mm 3 mps 760 mmHg 82%
    06:00 +7°C° 0 mm 3 mps 760 mmHg 81%
    07:00 +9°C° 0 mm 2 mps 760 mmHg 71%
    08:00 +13°C° 0 mm 2 mps 761 mmHg 60%
    09:00 +15°C° 0 mm 2 mps 761 mmHg 50%
    10:00 +16°C° 0 mm 2 mps 761 mmHg 45%
    11:00 +17°C° 0 mm 2 mps 761 mmHg 41%
    12:00 +18°C° 0 mm 2 mps 761 mmHg 37%
    13:00 +19°C° 0 mm 4 mps 761 mmHg 38%
    14:00 +19°C° 0 mm 6 mps 761 mmHg 39%
    15:00 +18°C° 0 mm 7 mps 761 mmHg 40%
    16:00 +16°C° 0 mm 8 mps 762 mmHg 47%
    17:00 +13°C° 0 mm 9 mps 763 mmHg 55%
    18:00 +11°C° 0 mm 9 mps 764 mmHg 62%
    19:00 +11°C° 0 mm 9 mps 765 mmHg 63%
    20:00 +10°C° 0 mm 9 mps 766 mmHg 63%
    21:00 +8°C° 0 mm 10 mps 767 mmHg 64%
    22:00 +7°C° 0.1 mm 9 mps 767 mmHg 65%
    23:00 +7°C° 0.1 mm 9 mps 767 mmHg 66%

    1 April, Saturday

    Time Temperature Precipitation Wind Pressure Humidity
    00:00 +6°C° 0.1 mm 9 mps 767 mmHg 67%
    01:00 +6°C° 0.7 mm 9 mps 768 mmHg 69%
    02:00 +5°C° 0.7 mm 9 mps 768 mmHg 71%
    03:00 +5°C° 0.7 mm 9 mps 768 mmHg 73%
    04:00 +3°C° 0.1 mm 9 mps 769 mmHg 72%
    05:00 +3°C° 0.1 mm 9 mps 769 mmHg 71%
    06:00 +4°C° 0.1 mm 8 mps 769 mmHg 69%
    07:00 +4°C° 0.1 mm 8 mps 769 mmHg 67%
    08:00 +4°C° 0.1 mm 8 mps 769 mmHg 64%
    09:00 +5°C° 0.1 mm 8 mps 769 mmHg 61%
    10:00 +5°C° 0.3 mm 7 mps 769 mmHg 61%
    11:00 +5°C° 0.3 mm 7 mps 769 mmHg 61%
    12:00 +5°C° 0.3 mm 7 mps 768 mmHg 60%
    13:00 +7°C° 0 mm 6 mps 768 mmHg 60%
    14:00 +7°C° 0 mm 6 mps 767 mmHg 59%
    15:00 +7°C° 0 mm 6 mps 767 mmHg 58%
    16:00 +5°C° 0 mm 6 mps 767 mmHg 60%
    17:00 +5°C° 0 mm 6 mps 767 mmHg 62%
    18:00 +5°C° 0 mm 5 mps 767 mmHg 64%
    19:00 +5°C° 0.2 mm 5 mps 767 mmHg 65%
    20:00 +5°C° 0.2 mm 5 mps 767 mmHg 66%
    21:00 +3°C° 0.2 mm 5 mps 767 mmHg 67%
    22:00 +4°C° 0.5 mm 4 mps 767 mmHg 69%
    23:00 +4°C° 0.5 mm 4 mps 766 mmHg 70%
    Show more